Flag for Germany Weather past 2 weeks in Güstrow, Mecklenburg-Western Pomerania, Germany

Now
39 °F

Passing clouds.


Feels Like: 37 °F
Forecast: 39 / 58 °F
Wind: 3 mph from West

Location: Laage

Current Time: Apr 19, 2015 at 5:56:10 AM

Latest Report: Apr 19, 2015 at 5:20 AM


Visibility: N/A

Pressure: 30.18 "Hg

Humidity: 87%

Dew point: 36 °F

Location of GüstrowLocation

Historic Weather in Güstrow — Graph

°F

Güstrow temperature yesterday

Maximum temperature yesterday: 50 °F (at 1:20 PM)
Minimum temperature yesterday: 32 °F (at 5:20 AM)
Average temperature yesterday: 42 °F

Past Weeks' High & Low Weather Summary

 TemperatureHumidityPressure
High68 °F (Apr 11, 2:20 PM)100% (Apr 4, 4:20 AM)30.54 "Hg (Apr 4, 4:20 AM)
Low28 °F (Apr 4, 6:20 AM)30% (Apr 15, 4:52 PM)29.77 "Hg (Apr 15, 4:20 PM)
Average46 °F72%30.18 "Hg
* Reported Apr 4 4:20 AM — Apr 19 4:50 AM, Güstrow, Weather by CustomWeather, © 2015

Note: Actual official high and low records may vary slightly from our data, if they occured in-between our weather recording intervals... More about our weather records

Advertising

Güstrow weather history for previous 24 hours

 ConditionsComfort  
Time TempWeatherWind HumidityBarometerVisibility
4:50 AM
Sun, Apr 19
37 °FPassing clouds.5 mph93%30.18 "HgN/A
4:20 AM39 °FPassing clouds.5 mph81%30.18 "HgN/A
3:20 AM37 °FPartly cloudy.3 mph81%30.15 "HgN/A
2:20 AM37 °FPassing clouds.3 mph75%30.18 "HgN/A
1:20 AM37 °FPassing clouds.1 mph75%30.18 "HgN/A
12:20 AM39 °FPassing clouds.3 mph65%30.18 "HgN/A
11:20 PM
Sat, Apr 18
41 °FPassing clouds.5 mph61%30.18 "HgN/A
10:20 PM39 °FPassing clouds.2 mph70%30.18 "HgN/A
9:20 PM43 °FPartly cloudy.5 mph61%30.21 "HgN/A
8:20 PM45 °FBroken clouds.3 mph57%30.21 "HgN/A
7:20 PM48 °FPartly sunny.8 mph50%30.21 "HgN/A
6:20 PM50 °FScattered clouds.7 mph37%30.21 "HgN/A
5:20 PM50 °FScattered clouds.9 mph43%30.24 "HgN/A
4:20 PM50 °FPassing clouds.9 mph43%30.27 "HgN/A
3:20 PM50 °FPassing clouds.12 mph43%30.27 "HgN/A
2:20 PM50 °FScattered clouds.14 mph47%30.30 "HgN/A
1:20 PM50 °FScattered clouds.12 mph47%30.27 "HgN/A
12:20 PM48 °FScattered clouds.14 mph46%30.30 "HgN/A
11:20 AM46 °FScattered clouds.13 mph53%30.33 "HgN/A
10:20 AM46 °FScattered clouds.13 mph57%30.30 "HgN/A
9:20 AM45 °FPassing clouds.9 mph66%30.27 "HgN/A
8:20 AM41 °FPassing clouds.6 mph81%30.27 "HgN/A
7:20 AM34 °FFog.6 mph100%30.27 "HgN/A
6:20 AM32 °FFog.6 mph100%30.24 "HgN/A
5:20 AM32 °FFog.5 mph100%30.24 "HgN/A
Weather by CustomWeather, © 2015

See weather overviewHow to use our weather pages